This demonstration page uses our WeatherBlox Daily Observations layout. Learn more.

Left ArrowRight Arrow

40.92945, -100.16068

Hourly Observations for May 29, 2015

Temp ( °F °C ) Dew Point ( °F °C ) Humidity (%) Winds ( mph kmh ) Pressure ( in mb ) Visibility ( mi km ) Precip ( " mm )
12:15 am 00:15 Clear 58 14.3 55 13 92 92 W 6 9 29.91 1013 10 16.0934 N/A
12:35 am 00:35 Clear 58 14.2 55 13 93 93 W 7 11 29.91 1013 10 16.0934 N/A
12:55 am 00:55 Clear 57 14.1 55 12.9 93 93 S 6 9 29.91 1013 10 16.0934 N/A
1:15 am 01:15 Clear 58 14.5 56 13.3 93 93 WSW 5 7 29.94 1014 10 16.0934 N/A
1:35 am 01:35 Clear 58 14.7 56 13.5 93 93 W 10 17 29.94 1014 10 16.0934 N/A
1:55 am 01:55 Partly Cloudy 59 15 56 13.5 91 91 WSW 6 9 29.94 1014 10 16.0934 N/A
2:15 am 02:15 Partly Cloudy 59 15 56 13.5 91 91 N N/A 29.94 1014 10 16.0934 N/A
2:35 am 02:35 Clear 58 14.7 55 13 90 90 N N/A 29.91 1013 10 16.0934 N/A
2:55 am 02:55 Clear 57 14 55 12.5 91 91 N N/A 29.91 1013 10 16.0934 N/A
3:15 am 03:15 Clear 57 13.9 55 12.5 91 91 N N/A 29.91 1013 10 16.0934 N/A
3:35 am 03:35 Clear 55 12.8 53 11.7 93 93 N N/A 29.91 1013 10 16.0934 N/A
3:55 am 03:55 Clear 55 13 53 11.9 93 93 S 5 7 29.88 1012 10 16.0934 N/A
4:15 am 04:15 Clear 56 13.3 54 12.3 94 94 W 7 11 29.91 1013 10 16.0934 N/A
4:35 am 04:35 Clear 56 13.3 54 12.2 93 93 WNW 8 13 29.91 1013 10 16.0934 N/A
4:55 am 04:55 Clear 56 13.1 54 12.1 94 94 WNW 10 17 29.91 1013 10 16.0934 N/A
5:15 am 05:15 Clear 56 13.5 55 12.5 94 94 WNW 9 15 29.94 1014 10 16.0934 N/A
5:35 am 05:35 Clear 56 13.5 55 12.5 94 94 WNW 8 13 29.94 1014 10 16.0934 N/A
5:55 am 05:55 Clear 56 13.5 55 12.6 94 94 NW 7 11 29.94 1014 10 16.0934 N/A
6:15 am 06:15 Sunny 55 12.8 54 12 95 95 NW 7 11 29.94 1014 10 16.0934 N/A
6:35 am 06:35 Sunny 55 12.6 53 11.8 95 95 WNW 8 13 29.94 1014 10 16.0934 N/A
6:55 am 06:55 Sunny 55 12.8 54 12 95 95 WNW 7 11 29.94 1014 10 16.0934 N/A
7:15 am 07:15 Sunny 56 13.3 55 12.6 96 96 WNW 7 11 29.94 1014 10 16.0934 N/A
7:35 am 07:35 Sunny 58 14.3 56 13.5 95 95 WNW 8 13 29.97 1015 10 16.0934 N/A
7:55 am 07:55 Sunny 59 15 57 13.9 93 93 WNW 9 15 29.97 1015 10 16.0934 N/A
8:15 am 08:15 Sunny 60 15.6 57 13.7 89 89 NW 9 15 29.97 1015 10 16.0934 N/A
8:35 am 08:35 Sunny 61 16.3 57 14 86 86 NW 12 19 29.97 1015 10 16.0934 N/A
8:55 am 08:55 Sunny 63 17 58 14.2 84 84 NNW 12 19 29.94 1014 10 16.0934 N/A
9:15 am 09:15 Sunny 64 18 58 14.5 80 80 NNW 9 15 29.94 1014 10 16.0934 N/A
9:35 am 09:35 Sunny 66 18.7 58 14.6 77 77 NW 9 15 29.94 1014 10 16.0934 N/A
9:55 am 09:55 Sunny 67 19.5 58 14.7 74 74 NNW 10 17 29.91 1013 10 16.0934 N/A
10:15 am 10:15 Sunny 68 19.9 60 15.3 75 75 NNW 10 17 29.91 1013 10 16.0934 N/A
10:35 am 10:35 Sunny 68 20.2 58 14.7 71 71 N 12 19 29.91 1013 10 16.0934 N/A
10:55 am 10:55 Sunny 69 20.8 59 14.9 69 69 NW 13 20 29.91 1013 10 16.0934 N/A
11:15 am 11:15 Sunny 70 21.2 59 14.9 67 67 NNW 13 20 29.91 1013 10 16.0934 N/A
11:35 am 11:35 Partly Cloudy 70 21.2 58 14.5 66 66 NNW 13 20 29.91 1013 10 16.0934 N/A
11:55 am 11:55 Partly Cloudy 71 21.7 59 15.2 67 67 NNW 14 22 29.91 1013 10 16.0934 N/A
12:15 pm 12:15 Partly Cloudy 71 21.7 59 14.9 65 65 NNW 15 24 29.91 1013 10 16.0934 N/A
12:35 pm 12:35 Partly Cloudy 71 21.6 59 14.8 65 65 NNW 14 22 29.91 1013 10 16.0934 N/A
12:55 pm 12:55 Sunny 73 22.7 59 15 62 62 NNW 14 22 29.91 1013 10 16.0934 N/A
1:15 pm 13:15 Partly Cloudy 73 22.5 60 15.4 64 64 NNW 15 24 29.94 1014 10 16.0934 N/A
1:35 pm 13:35 Partly Cloudy 71 21.9 58 14.7 64 64 NNW 10 17 29.94 1014 10 16.0934 N/A
1:55 pm 13:55 Partly Cloudy 73 22.7 58 14.5 60 60 N 10 17 29.94 1014 10 16.0934 N/A
2:15 pm 14:15 Partly Cloudy 70 21.2 58 14.3 65 65 NW 14 22 29.94 1014 10 16.0934 N/A
2:35 pm 14:35 Sunny 72 22.1 58 14.5 62 62 N 13 20 29.94 1014 10 16.0934 N/A
2:55 pm 14:55 Partly Cloudy 71 21.8 57 14 61 61 N 22 35 29.94 1014 10 16.0934 N/A
3:15 pm 15:15 Partly Cloudy 71 21.5 58 14.4 64 64 N 22 35 29.94 1014 10 16.0934 N/A
3:35 pm 15:35 Partly Cloudy 71 21.6 58 14.5 64 64 N 23 37 29.94 1014 10 16.0934 N/A
3:55 pm 15:55 Partly Cloudy 70 20.9 57 14 65 65 N 25 41 29.94 1014 10 16.0934 N/A
4:15 pm 16:15 Partly Cloudy 66 18.7 55 12.7 68 68 N 25 41 29.97 1015 10 16.0934 N/A
4:35 pm 16:35 Partly Cloudy with Light Rain 63 17.4 56 13.1 76 76 N 25 41 29.97 1015 10 16.0934 N/A
4:55 pm 16:55 Mostly Cloudy with Light Rain 61 16.1 56 13.4 84 84 N 23 37 30 1016 10 16.0934 0.01 0.254
5:15 pm 17:15 Mostly Cloudy 60 15.7 55 12.9 84 84 N 24 39 30 1016 10 16.0934 N/A
5:35 pm 17:35 Mostly Cloudy 60 15.5 54 12.1 80 80 N 24 39 30.06 1018 10 16.0934 N/A
5:55 pm 17:55 Cloudy with Rain 58 14.5 54 12.3 87 87 NNW 20 31 30.06 1018 10 16.0934 0.01 0.254
6:15 pm 18:15 Cloudy with Rain 57 14.1 54 12.3 89 89 N 16 26 30.09 1019 10 16.0934 0.03 0.762
6:35 pm 18:35 Cloudy with Light Rain 56 13.5 53 11.9 90 90 N 24 39 30.09 1019 7 11.26538 0.05 1.27
6:55 pm 18:55 Cloudy 56 13.5 53 11.7 89 89 N 26 43 30.03 1017 10 16.0934 0.06 1.524
7:15 pm 19:15 Cloudy 56 13.5 53 11.4 87 87 N 25 41 30.09 1019 10 16.0934 N/A
7:35 pm 19:35 Cloudy 56 13.4 52 10.9 85 85 N 26 43 30.09 1019 10 16.0934 N/A
7:55 pm 19:55 Cloudy 55 12.7 50 10.1 84 84 N 21 33 30.09 1019 10 16.0934 N/A
8:15 pm 20:15 Cloudy 54 12.2 49 9.7 85 85 N 25 41 30.09 1019 10 16.0934 N/A
8:35 pm 20:35 Cloudy 53 11.7 49 9.4 86 86 N 21 33 30.12 1020 10 16.0934 N/A
8:55 pm 20:55 Cloudy 53 11.5 49 9.3 86 86 N 17 28 30.12 1020 10 16.0934 N/A
9:15 pm 21:15 Mostly Cloudy 52 11.3 48 8.9 85 85 N 17 28 30.18 1022 10 16.0934 N/A
9:35 pm 21:35 Cloudy 52 11.2 48 9 86 86 N 17 28 30.18 1022 10 16.0934 N/A
9:55 pm 21:55 Cloudy 52 11 47 8.6 85 85 N 10 17 30.21 1023 10 16.0934 N/A
10:15 pm 22:15 Cloudy 51 10.8 47 8.5 86 86 N 17 28 30.21 1023 10 16.0934 N/A
10:35 pm 22:35 Cloudy 51 10.8 47 8.5 86 86 N 13 20 30.21 1023 10 16.0934 N/A
10:55 pm 22:55 Cloudy 51 10.8 47 8.3 85 85 N 14 22 30.24 1024 10 16.0934 N/A
11:15 pm 23:15 Cloudy 51 10.7 47 8.5 86 86 N 15 24 30.24 1024 10 16.0934 N/A
11:35 pm 23:35 Cloudy 51 10.6 47 8.2 85 85 N 20 31 30.24 1024 10 16.0934 N/A
11:55 pm 23:55 Cloudy 51 10.5 47 8.2 86 86 N 12 19 30.24 1024 10 16.0934 N/A

Powered by AerisWeather